Location: Vysna Sitnica
(49.0952°N, 21.7906°E)
Time: 10:58:31
(UTC+02:00)

ISS - Visible Passes

Search period start: 09 May 2021 00:00
Search period end: 19 May 2021 00:00
Orbit: 418 x 421 km, 51.6° (Epoch: 09 May)

Date Brightness Start Highest point End Pass type
(mag) Time Alt. Az. Time Alt. Az. Time Alt. Az.
09 May -3.5 02:03:26 62° NW 02:03:46 68° NNW 02:07:09 10° ENE visible
09 May -3.1 03:37:30 10° WNW 03:40:50 56° N 03:44:10 10° E visible
10 May -2.6 01:17:26 39° ENE 01:17:26 39° ENE 01:19:42 10° ENE visible
10 May -3.0 02:50:22 12° WNW 02:53:20 53° N 02:56:40 10° E visible
11 May -1.3 00:31:25 17° ENE 00:31:25 17° ENE 00:32:15 10° ENE visible
11 May -3.0 02:04:20 28° WNW 02:05:49 53° N 02:09:09 10° ENE visible
11 May -3.6 03:39:28 10° WNW 03:42:51 76° NNE 03:46:14 10° ESE visible
12 May -3.2 01:18:15 58° NNW 01:18:19 58° N 01:21:40 10° ENE visible
12 May -3.3 02:52:01 10° WNW 02:55:23 63° NNE 02:58:44 10° E visible
13 May -2.4 00:32:05 34° ENE 00:32:05 34° ENE 00:34:11 10° ENE visible
13 May -3.1 02:05:00 13° WNW 02:07:53 56° N 02:11:13 10° E visible
13 May -3.8 03:41:25 10° WNW 03:44:46 61° SSW 03:48:06 10° SE visible
13 May -1.6 23:45:42 18° ENE 23:45:42 18° ENE 23:46:44 10° ENE visible
14 May -3.0 01:18:35 24° WNW 01:20:22 53° N 01:23:42 10° E visible
14 May -3.9 02:53:57 10° WNW 02:57:20 84° SSW 03:00:43 10° ESE visible
14 May -2.2 21:17:15 10° S 21:19:31 17° SE 21:21:44 10° E visible
14 May -3.8 22:52:32 10° WSW 22:57:43 25° ENE 22:59:16 10° ENE visible
15 May -3.0 00:29:31 10° W 00:32:50 53° N 00:36:10 10° ENE visible
15 May -3.7 02:06:29 10° WNW 02:09:52 77° NNE 02:13:16 10° ESE visible
15 May -2.9 03:43:30 10° W 03:46:30 29° SW 03:49:28 10° SSE visible
15 May -3.7 22:05:11 10° SW 22:08:29 53° SSE 22:11:47 10° ENE visible
15 May -3.2 23:41:58 10° W 23:45:19 58° N 23:48:40 10° ENE visible
16 May -3.3 01:19:01 10° WNW 01:22:23 63° NNE 01:25:45 10° E visible
16 May -3.4 02:55:55 10° WNW 02:59:08 42° SSW 03:02:21 10° SE visible
16 May -3.2 21:17:58 10° SW 21:21:06 36° SSE 21:24:14 10° E visible
16 May -3.5 22:54:27 10° W 22:57:48 67° NNW 23:01:10 10° ENE visible
17 May -3.1 00:31:31 10° WNW 00:34:52 56° N 00:38:12 10° E visible
17 May -3.8 02:08:24 10° WNW 02:11:45 61° SSW 02:15:05 10° SE visible
17 May -1.9 03:46:19 10° WSW 03:48:01 13° SW 03:49:42 10° SSW visible
17 May -3.7 22:06:56 10° WSW 22:10:19 83° NNW 22:13:42 10° ENE visible
17 May -3.0 23:44:01 10° WNW 23:47:20 53° N 23:49:57 15° ENE visible
18 May -2.5 01:20:55 10° WNW 01:22:50 31° WNW 01:22:50 31° WNW visible
18 May -3.8 21:19:29 10° WSW 21:22:51 75° SSE 21:26:13 10° ENE visible
18 May -3.0 22:56:28 10° W 22:59:48 53° N 23:03:07 10° ENE visible
